アイソン彗星

C/2012 S1 ( ISON )

English version
Home page
Updated on August 10, 2024

---------------------------------------------------------------------

・ プロフィール

発見日 2012年9月21日
発見光度 18.8等
発見者 Vitali Nevski (Vitebsk, Belarus) and Artyom Novichonok (Kondopoga, Russia), International Scientific Optical Network (ISON) near Kislovodsk, Russia

・ 写真集

・ 軌道要素

Epoch 2013 Dec. 14.0 TT = JDT 2456640.5
T 2013 Nov. 28.77905 TT                                 MPC
q   0.0124560            (2000.0)            P               Q
z  -0.0200414      Peri.  345.53761     +0.31489415     +0.51249503
                   Node   295.65228     -0.75876058     -0.36972295
e   1.0002496      Incl.   62.40148     -0.57019651     +0.77501857
From 6259 observations 2011 Sept. 30-2013 Nov. 22, mean residual 0".6.
     Nongravitational parameters A1 = +7.87, A2 = +0.6396.

・ 星図

・ 光度変化

        m1 =  5.5 + 5 logΔ + 10.0 log r  [    ,-250]  (              〜2013年 3月23日)
        m1 =  8.0 + 5 logΔ +  7.5 log r  [-250,   0]  (2013年 3月23日〜2013年11月28日)
        m1 = 12.5 + 5 logΔ + 10.0 log r  [   0,  12]  (2013年11月28日〜2013年12月10日)
        m1 = 15   + 5 logΔ + 20   log r  [  12,    ]  (2013年12月10日〜              )

        ※ 緑色の曲線は、m1 = 5.5 + 5 logΔ + 10.0 log r の光度曲線です。

---------------------------------------------------------------------

軌道要素はM.P.E.C. 2014-Q43に掲載されたものです。
星図はステラナビゲータ Ver.8 (アストロアーツ) で作成したものです。
光度グラフはComet for Windowsで作成したものです。

---------------------------------------------------------------------

Copyright(C) Seiichi Yoshida (comet@aerith.net). All rights reserved.